| time (UTC) | temp F | wind direction | speed knots | gust knots | rain 1hr in | rain 24hr in | rain mn in | humidity % | barometer mb |
| 20260505090413 | 69 | 122 | 11.3 | 21.7 | 0.00 | 0.00 | 0.00 | 43 | 1008.0 |
| 20260505090211 | 69 | 122 | 11.3 | 21.7 | 0.00 | 0.00 | 0.00 | 44 | 1008.1 |
| 20260505090012 | 69 | 121 | 11.3 | 20.0 | 0.00 | 0.00 | 0.00 | 43 | 1008.1 |
| 20260505085411 | 70 | 124 | 10.4 | 21.7 | 0.00 | 0.00 | 0.00 | 42 | 1008.2 |
| 20260505085212 | 71 | 125 | 10.4 | 24.3 | 0.00 | 0.00 | 0.00 | 42 | 1008.1 |
| 20260505085012 | 71 | 125 | 10.4 | 24.3 | 0.00 | 0.00 | 0.00 | 42 | 1008.1 |
| 20260505084812 | 71 | 125 | 9.6 | 24.3 | 0.00 | 0.00 | 0.00 | 42 | 1008.1 |
| 20260505084611 | 71 | 127 | 9.6 | 24.3 | 0.00 | 0.00 | 0.00 | 42 | 1008.2 |
| 20260505084211 | 71 | 125 | 9.6 | 21.7 | 0.00 | 0.00 | 0.00 | 42 | 1008.3 |
| 20260505084011 | 71 | 127 | 10.4 | 17.4 | 0.00 | 0.00 | 0.00 | 43 | 1008.3 |
| 20260505083811 | 71 | 128 | 10.4 | 16.5 | 0.00 | 0.00 | 0.00 | 44 | 1008.2 |
| 20260505083611 | 71 | 125 | 10.4 | 20.9 | 0.00 | 0.00 | 0.00 | 44 | 1008.2 |
| 20260505083412 | 70 | 123 | 10.4 | 20.9 | 0.00 | 0.00 | 0.00 | 44 | 1008.2 |
| 20260505083211 | 70 | 121 | 11.3 | 20.9 | 0.00 | 0.00 | 0.00 | 44 | 1008.1 |
| 20260505083011 | 70 | 121 | 11.3 | 20.9 | 0.00 | 0.00 | 0.00 | 45 | 1008.2 |
| 20260505082811 | 69 | 121 | 11.3 | 21.7 | 0.00 | 0.00 | 0.00 | 44 | 1008.2 |
| 20260505082611 | 69 | 121 | 11.3 | 21.7 | 0.00 | 0.00 | 0.00 | 45 | 1008.2 |
| 20260505082411 | 69 | 121 | 11.3 | 21.7 | 0.00 | 0.00 | 0.00 | 45 | 1008.2 |
| 20260505082211 | 69 | 121 | 11.3 | 21.7 | 0.00 | 0.00 | 0.00 | 45 | 1008.2 |
| 20260505082011 | 68 | 121 | 11.3 | 21.7 | 0.00 | 0.00 | 0.00 | 45 | 1008.2 |
| 20260505081811 | 68 | 121 | 11.3 | 21.7 | 0.00 | 0.00 | 0.00 | 45 | 1008.2 |
| 20260505081610 | 69 | 121 | 11.3 | 21.7 | 0.00 | 0.00 | 0.00 | 44 | 1008.3 |
| 20260505081411 | 69 | 122 | 11.3 | 21.7 | 0.00 | 0.00 | 0.00 | 44 | 1008.2 |
| 20260505081212 | 69 | 121 | 10.4 | 21.7 | 0.00 | 0.00 | 0.00 | 44 | 1008.1 |
| 20260505081011 | 69 | 121 | 10.4 | 20.9 | 0.00 | 0.00 | 0.00 | 44 | 1008.2 |
| 20260505080811 | 69 | 119 | 9.6 | 20.9 | 0.00 | 0.00 | 0.00 | 45 | 1008.3 |
| 20260505080611 | 69 | 120 | 8.7 | 18.2 | 0.00 | 0.00 | 0.00 | 45 | 1008.3 |
| 20260505080411 | 69 | 121 | 8.7 | 17.4 | 0.00 | 0.00 | 0.00 | 45 | 1008.2 |
| 20260505080211 | 69 | 123 | 7.8 | 17.4 | 0.00 | 0.00 | 0.00 | 46 | 1008.2 |
| 20260505080011 | 68 | 121 | 7.8 | 16.5 | 0.00 | 0.00 | 0.00 | 45 | 1008.2 |
| 20260505075613 | 68 | 117 | 7.8 | 15.6 | 0.00 | 0.00 | 0.00 | 46 | 1008.2 |
| 20260505075411 | 68 | 115 | 7.8 | 15.6 | 0.00 | 0.00 | 0.00 | 46 | 1008.4 |
| 20260505075011 | 67 | 112 | 7.8 | 19.1 | 0.00 | 0.00 | 0.00 | 48 | 1008.3 |
| 20260505074811 | 67 | 113 | 7.8 | 19.1 | 0.00 | 0.00 | 0.00 | 48 | 1008.4 |
| 20260505074411 | 66 | 116 | 7.0 | 19.1 | 0.00 | 0.00 | 0.00 | 48 | 1008.3 |
| 20260505074011 | 66 | 119 | 6.1 | 14.8 | 0.00 | 0.00 | 0.00 | 48 | 1008.3 |
| 20260505073811 | 66 | 118 | 6.1 | 14.8 | 0.00 | 0.00 | 0.00 | 48 | 1008.3 |
| 20260505073611 | 66 | 118 | 5.2 | 14.8 | 0.00 | 0.00 | 0.00 | 48 | 1008.3 |
| 20260505073211 | 65 | 120 | 6.1 | 13.0 | 0.00 | 0.00 | 0.00 | 48 | 1008.4 |
| 20260505073010 | 65 | 121 | 6.1 | 13.0 | 0.00 | 0.00 | 0.00 | 48 | 1008.4 |
| 20260505072811 | 65 | 123 | 6.1 | 13.0 | 0.00 | 0.00 | 0.00 | 48 | 1008.5 |
| 20260505072411 | 65 | 120 | 7.0 | 15.6 | 0.00 | 0.00 | 0.00 | 48 | 1008.4 |
| 20260505072011 | 65 | 115 | 7.0 | 15.6 | 0.00 | 0.00 | 0.00 | 49 | 1008.3 |
| 20260505071811 | 64 | 114 | 7.0 | 15.6 | 0.00 | 0.00 | 0.00 | 49 | 1008.3 |
| 20260505071611 | 64 | 111 | 7.0 | 15.6 | 0.00 | 0.00 | 0.00 | 49 | 1008.3 |
| 20260505071411 | 64 | 111 | 7.8 | 15.6 | 0.00 | 0.00 | 0.00 | 49 | 1008.3 |
| 20260505071210 | 64 | 113 | 7.8 | 15.6 | 0.00 | 0.00 | 0.00 | 49 | 1008.3 |
| 20260505071011 | 64 | 115 | 8.7 | 14.8 | 0.00 | 0.00 | 0.00 | 49 | 1008.3 |
| 20260505070811 | 64 | 117 | 8.7 | 14.8 | 0.00 | 0.00 | 0.00 | 49 | 1008.3 |
| 20260505070611 | 64 | 119 | 8.7 | 14.8 | 0.00 | 0.00 | 0.00 | 49 | 1008.3 |
| 20260505070011 | 64 | 120 | 9.6 | 16.5 | 0.00 | 0.00 | 0.00 | 49 | 1008.2 |
| 20260505065811 | 64 | 119 | 9.6 | 17.4 | 0.00 | 0.00 | 0.00 | 49 | 1008.2 |
| 20260505065611 | 64 | 119 | 9.6 | 18.2 | 0.00 | 0.00 | 0.00 | 49 | 1008.3 |
| 20260505065212 | 64 | 119 | 10.4 | 19.1 | 0.00 | 0.00 | 0.00 | 49 | 1008.2 |
| 20260505064811 | 64 | 119 | 10.4 | 20.0 | 0.00 | 0.00 | 0.00 | 49 | 1008.2 |
| 20260505064610 | 64 | 118 | 11.3 | 20.0 | 0.00 | 0.00 | 0.00 | 48 | 1008.2 |
| 20260505064211 | 64 | 119 | 12.2 | 20.0 | 0.00 | 0.00 | 0.00 | 48 | 1008.1 |
| 20260505064011 | 64 | 120 | 12.2 | 20.0 | 0.00 | 0.00 | 0.00 | 49 | 1008.2 |
| 20260505063811 | 64 | 120 | 12.2 | 20.0 | 0.00 | 0.00 | 0.00 | 48 | 1008.2 |
| 20260505063611 | 64 | 120 | 12.2 | 20.0 | 0.00 | 0.00 | 0.00 | 49 | 1008.2 |
| 20260505063415 | 64 | 118 | 12.2 | 20.0 | 0.00 | 0.00 | 0.00 | 48 | 1008.1 |
| 20260505063211 | 64 | 117 | 12.2 | 20.0 | 0.00 | 0.00 | 0.00 | 48 | 1008.0 |
| 20260505062811 | 64 | 117 | 12.2 | 20.9 | 0.00 | 0.00 | 0.00 | 48 | 1008.1 |
| 20260505062611 | 64 | 117 | 12.2 | 20.9 | 0.00 | 0.00 | 0.00 | 49 | 1008.0 |
| 20260505062410 | 64 | 117 | 11.3 | 20.9 | 0.00 | 0.00 | 0.00 | 49 | 1008.0 |
| 20260505062211 | 64 | 117 | 11.3 | 20.9 | 0.00 | 0.00 | 0.00 | 48 | 1008.1 |
| 20260505062011 | 64 | 116 | 11.3 | 20.9 | 0.00 | 0.00 | 0.00 | 48 | 1008.0 |
| 20260505061611 | 64 | 117 | 12.2 | 20.0 | 0.00 | 0.00 | 0.00 | 49 | 1008.0 |
| 20260505061211 | 64 | 118 | 12.2 | 20.0 | 0.00 | 0.00 | 0.00 | 49 | 1008.1 |
| 20260505061011 | 64 | 116 | 12.2 | 23.5 | 0.00 | 0.00 | 0.00 | 49 | 1008.2 |
| 20260505060811 | 64 | 116 | 12.2 | 23.5 | 0.00 | 0.00 | 0.00 | 49 | 1008.0 |
| 20260505060411 | 64 | 119 | 13.0 | 25.2 | 0.00 | 0.00 | 0.00 | 49 | 1008.0 |
| 20260505060211 | 64 | 119 | 13.0 | 25.2 | 0.00 | 0.00 | 0.00 | 49 | 1008.2 |
| 20260505060011 | 64 | 120 | 13.0 | 25.2 | 0.00 | 0.00 | 0.00 | 50 | 1007.9 |
| 20260505055811 | 64 | 118 | 13.0 | 25.2 | 0.00 | 0.00 | 0.00 | 49 | 1008.0 |
| 20260505055611 | 64 | 116 | 13.0 | 25.2 | 0.00 | 0.00 | 0.00 | 49 | 1008.1 |
| 20260505055411 | 64 | 119 | 12.2 | 25.2 | 0.00 | 0.00 | 0.00 | 49 | 1008.0 |
| 20260505055211 | 64 | 119 | 12.2 | 25.2 | 0.00 | 0.00 | 0.00 | 50 | 1008.0 |
| 20260505055010 | 63 | 118 | 12.2 | 25.2 | 0.00 | 0.00 | 0.00 | 49 | 1008.0 |
| 20260505054811 | 63 | 118 | 12.2 | 25.2 | 0.00 | 0.00 | 0.00 | 50 | 1007.9 |
| 20260505054612 | 63 | 120 | 12.2 | 20.9 | 0.00 | 0.00 | 0.00 | 49 | 1008.1 |
| 20260505054214 | 63 | 119 | 12.2 | 26.1 | 0.00 | 0.00 | 0.00 | 50 | 1008.0 |
| 20260505054011 | 63 | 120 | 12.2 | 26.1 | 0.00 | 0.00 | 0.00 | 50 | 1008.0 |
| 20260505053811 | 63 | 120 | 12.2 | 26.1 | 0.00 | 0.00 | 0.00 | 50 | 1008.0 |
| 20260505053611 | 63 | 119 | 12.2 | 26.1 | 0.00 | 0.00 | 0.00 | 49 | 1007.9 |
| 20260505053411 | 63 | 118 | 13.0 | 23.5 | 0.00 | 0.00 | 0.00 | 50 | 1008.0 |
| 20260505053214 | 63 | 117 | 13.0 | 23.5 | 0.00 | 0.00 | 0.00 | 50 | 1008.0 |
| 20260505053011 | 63 | 117 | 13.0 | 22.6 | 0.00 | 0.00 | 0.00 | 50 | 1008.0 |
| 20260505052811 | 63 | 118 | 13.0 | 23.5 | 0.00 | 0.00 | 0.00 | 49 | 1007.9 |
| 20260505052611 | 63 | 119 | 13.0 | 23.5 | 0.00 | 0.00 | 0.00 | 50 | 1008.0 |
| 20260505052411 | 63 | 119 | 12.2 | 23.5 | 0.00 | 0.00 | 0.00 | 49 | 1007.9 |
| 20260505052011 | 62 | 118 | 12.2 | 23.5 | 0.00 | 0.00 | 0.00 | 49 | 1007.8 |
| 20260505051611 | 62 | 116 | 11.3 | 21.7 | 0.00 | 0.00 | 0.00 | 50 | 1007.9 |
| 20260505051411 | 62 | 115 | 11.3 | 21.7 | 0.00 | 0.00 | 0.00 | 49 | 1007.8 |
| 20260505051211 | 62 | 115 | 11.3 | 21.7 | 0.00 | 0.00 | 0.00 | 49 | 1007.8 |
| 20260505051011 | 62 | 115 | 10.4 | 19.1 | 0.00 | 0.00 | 0.00 | 49 | 1007.8 |
| 20260505050811 | 62 | 115 | 10.4 | 19.1 | 0.00 | 0.00 | 0.00 | 49 | 1007.8 |
| 20260505050611 | 62 | 116 | 10.4 | 19.1 | 0.00 | 0.00 | 0.00 | 49 | 1008.0 |
| 20260505050411 | 62 | 117 | 10.4 | 19.1 | 0.00 | 0.00 | 0.00 | 49 | 1008.0 |
| 20260505050211 | 62 | 119 | 10.4 | 18.2 | 0.00 | 0.00 | 0.00 | 49 | 1007.9 |
| 20260505041611 | 62 | 117 | 12.2 | 22.6 | 0.00 | 0.00 | 0.00 | 48 | 1008.0 |
| 20260505041411 | 62 | 117 | 12.2 | 22.6 | 0.00 | 0.00 | 0.00 | 48 | 1008.1 |
| 20260505041211 | 62 | 117 | 13.0 | 23.5 | 0.00 | 0.00 | 0.00 | 48 | 1008.0 |
| 20260505041011 | 62 | 118 | 13.0 | 23.5 | 0.00 | 0.00 | 0.00 | 47 | 1008.0 |
| 20260505040811 | 62 | 117 | 13.0 | 23.5 | 0.00 | 0.00 | 0.00 | 47 | 1007.9 |
| 20260505040611 | 62 | 116 | 13.0 | 23.5 | 0.00 | 0.00 | 0.00 | 47 | 1008.1 |
| 20260505040411 | 62 | 116 | 13.0 | 23.5 | 0.00 | 0.00 | 0.00 | 47 | 1008.0 |
| 20260505040211 | 62 | 115 | 13.0 | 22.6 | 0.00 | 0.00 | 0.00 | 46 | 1008.1 |
| 20260505040011 | 62 | 114 | 13.0 | 21.7 | 0.00 | 0.00 | 0.00 | 46 | 1008.1 |
| 20260505035811 | 62 | 115 | 13.0 | 23.5 | 0.00 | 0.00 | 0.00 | 46 | 1008.0 |
| 20260505035610 | 62 | 117 | 13.0 | 23.5 | 0.00 | 0.00 | 0.00 | 46 | 1008.1 |
| 20260505035411 | 62 | 117 | 13.0 | 23.5 | 0.00 | 0.00 | 0.00 | 46 | 1008.0 |
| 20260505035211 | 62 | 117 | 12.2 | 23.5 | 0.00 | 0.00 | 0.00 | 46 | 1008.0 |
| 20260505035011 | 62 | 119 | 12.2 | 23.5 | 0.00 | 0.00 | 0.00 | 46 | 1007.9 |
| 20260505034811 | 62 | 117 | 12.2 | 20.9 | 0.00 | 0.00 | 0.00 | 46 | 1008.1 |
| 20260505034611 | 62 | 117 | 12.2 | 20.9 | 0.00 | 0.00 | 0.00 | 46 | 1008.0 |
| 20260505034411 | 62 | 118 | 12.2 | 20.9 | 0.00 | 0.00 | 0.00 | 46 | 1008.0 |
| 20260505034210 | 62 | 118 | 12.2 | 20.9 | 0.00 | 0.00 | 0.00 | 46 | 1008.1 |
| 20260505033810 | 62 | 119 | 12.2 | 20.9 | 0.00 | 0.00 | 0.00 | 45 | 1008.0 |
| 20260505033611 | 62 | 120 | 12.2 | 20.9 | 0.00 | 0.00 | 0.00 | 45 | 1008.0 |
| 20260505033211 | 62 | 118 | 12.2 | 20.9 | 0.00 | 0.00 | 0.00 | 45 | 1008.1 |
| 20260505033010 | 62 | 119 | 12.2 | 20.9 | 0.00 | 0.00 | 0.00 | 45 | 1008.0 |
| 20260505032811 | 62 | 117 | 12.2 | 20.9 | 0.00 | 0.00 | 0.00 | 45 | 1008.2 |
| 20260505032611 | 62 | 116 | 12.2 | 21.7 | 0.00 | 0.00 | 0.00 | 44 | 1008.1 |
| 20260505032411 | 62 | 118 | 12.2 | 21.7 | 0.00 | 0.00 | 0.00 | 44 | 1008.2 |
| 20260505032210 | 63 | 117 | 12.2 | 21.7 | 0.00 | 0.00 | 0.00 | 44 | 1008.2 |
| 20260505031810 | 63 | 117 | 12.2 | 21.7 | 0.00 | 0.00 | 0.00 | 44 | 1008.0 |
| 20260505031611 | 63 | 117 | 12.2 | 20.9 | 0.00 | 0.00 | 0.00 | 44 | 1008.2 |
| 20260505031411 | 63 | 117 | 12.2 | 20.9 | 0.00 | 0.00 | 0.00 | 44 | 1008.2 |
| 20260505031010 | 63 | 118 | 12.2 | 20.9 | 0.00 | 0.00 | 0.00 | 43 | 1008.2 |
| 20260505030811 | 63 | 119 | 11.3 | 19.1 | 0.00 | 0.00 | 0.00 | 43 | 1008.3 |
| 20260505030611 | 63 | 119 | 11.3 | 19.1 | 0.00 | 0.00 | 0.00 | 43 | 1008.3 |
| 20260505030410 | 63 | 120 | 11.3 | 19.1 | 0.00 | 0.00 | 0.00 | 43 | 1008.2 |
| 20260505030211 | 63 | 119 | 12.2 | 19.1 | 0.00 | 0.00 | 0.00 | 43 | 1008.3 |
| 20260505030010 | 63 | 118 | 12.2 | 18.2 | 0.00 | 0.00 | 0.00 | 44 | 1008.3 |
| 20260505025811 | 63 | 118 | 12.2 | 18.2 | 0.00 | 0.00 | 0.00 | 44 | 1008.3 |
| 20260505025610 | 63 | 117 | 12.2 | 18.2 | 0.00 | 0.00 | 0.00 | 43 | 1008.3 |
| 20260505025210 | 63 | 116 | 12.2 | 21.7 | 0.00 | 0.00 | 0.00 | 43 | 1008.4 |
| 20260505025011 | 63 | 116 | 12.2 | 21.7 | 0.00 | 0.00 | 0.00 | 43 | 1008.4 |
| 20260505024611 | 63 | 117 | 11.3 | 21.7 | 0.00 | 0.00 | 0.00 | 43 | 1008.4 |
| 20260505024410 | 63 | 118 | 11.3 | 21.7 | 0.00 | 0.00 | 0.00 | 43 | 1008.5 |
| 20260505024211 | 63 | 119 | 11.3 | 19.1 | 0.00 | 0.00 | 0.00 | 43 | 1008.5 |
| 20260505024011 | 63 | 119 | 11.3 | 19.1 | 0.00 | 0.00 | 0.00 | 43 | 1008.5 |
| 20260505023811 | 63 | 118 | 12.2 | 19.1 | 0.00 | 0.00 | 0.00 | 43 | 1008.6 |
| 20260505023610 | 63 | 118 | 12.2 | 20.0 | 0.00 | 0.00 | 0.00 | 42 | 1008.6 |
| 20260505023411 | 63 | 119 | 12.2 | 20.0 | 0.00 | 0.00 | 0.00 | 42 | 1008.6 |
| 20260505023210 | 63 | 119 | 12.2 | 20.9 | 0.00 | 0.00 | 0.00 | 42 | 1008.6 |
| 20260505022811 | 64 | 119 | 12.2 | 20.9 | 0.00 | 0.00 | 0.00 | 42 | 1008.5 |
| 20260505022611 | 64 | 119 | 13.0 | 20.9 | 0.00 | 0.00 | 0.00 | 42 | 1008.5 |
| 20260505022211 | 64 | 116 | 13.9 | 21.7 | 0.00 | 0.00 | 0.00 | 42 | 1008.5 |
| 20260505022010 | 64 | 115 | 13.9 | 21.7 | 0.00 | 0.00 | 0.00 | 41 | 1008.5 |
| 20260505021811 | 64 | 115 | 14.8 | 24.3 | 0.00 | 0.00 | 0.00 | 41 | 1008.6 |
| 20260505021210 | 64 | 117 | 14.8 | 24.3 | 0.00 | 0.00 | 0.00 | 41 | 1008.6 |
| 20260505020810 | 64 | 118 | 13.9 | 24.3 | 0.00 | 0.00 | 0.00 | 40 | 1008.5 |
| 20260505020611 | 64 | 118 | 13.9 | 21.7 | 0.00 | 0.00 | 0.00 | 41 | 1008.5 |
| 20260505020411 | 64 | 118 | 13.0 | 21.7 | 0.00 | 0.00 | 0.00 | 41 | 1008.5 |
| 20260505020210 | 64 | 118 | 13.0 | 25.2 | 0.00 | 0.00 | 0.00 | 41 | 1008.5 |
| 20260505020011 | 64 | 118 | 13.0 | 25.2 | 0.00 | 0.00 | 0.00 | 41 | 1008.5 |
| 20260505015810 | 64 | 118 | 13.0 | 25.2 | 0.00 | 0.00 | 0.00 | 41 | 1008.6 |
| 20260505015611 | 64 | 118 | 13.0 | 25.2 | 0.00 | 0.00 | 0.00 | 41 | 1008.6 |
| 20260505015411 | 64 | 118 | 13.0 | 25.2 | 0.00 | 0.00 | 0.00 | 41 | 1008.5 |
| 20260505015210 | 64 | 117 | 13.0 | 21.7 | 0.00 | 0.00 | 0.00 | 41 | 1008.6 |
| 20260505015011 | 64 | 117 | 13.0 | 21.7 | 0.00 | 0.00 | 0.00 | 41 | 1008.6 |
| 20260505014810 | 64 | 119 | 13.0 | 23.5 | 0.00 | 0.00 | 0.00 | 41 | 1008.6 |
| 20260505014411 | 64 | 120 | 13.0 | 23.5 | 0.00 | 0.00 | 0.00 | 41 | 1008.6 |
| 20260505014011 | 64 | 120 | 12.2 | 23.5 | 0.00 | 0.00 | 0.00 | 41 | 1008.6 |
| 20260505013611 | 64 | 118 | 12.2 | 21.7 | 0.00 | 0.00 | 0.00 | 41 | 1008.6 |
| 20260505013411 | 64 | 116 | 13.0 | 21.7 | 0.00 | 0.00 | 0.00 | 41 | 1008.7 |
| 20260505013210 | 64 | 116 | 13.0 | 23.5 | 0.00 | 0.00 | 0.00 | 40 | 1008.7 |
| 20260505013011 | 64 | 116 | 13.0 | 23.5 | 0.00 | 0.00 | 0.00 | 40 | 1008.7 |
| 20260505012810 | 64 | 116 | 13.0 | 23.5 | 0.00 | 0.00 | 0.00 | 40 | 1008.7 |
| 20260505012611 | 64 | 117 | 13.0 | 23.5 | 0.00 | 0.00 | 0.00 | 40 | 1008.7 |
| 20260505012410 | 64 | 118 | 13.0 | 25.2 | 0.00 | 0.00 | 0.00 | 40 | 1008.6 |
| 20260505012010 | 65 | 119 | 12.2 | 25.2 | 0.00 | 0.00 | 0.00 | 40 | 1008.6 |
| 20260505011811 | 64 | 119 | 12.2 | 25.2 | 0.00 | 0.00 | 0.00 | 40 | 1008.7 |
| 20260505011610 | 64 | 118 | 12.2 | 25.2 | 0.00 | 0.00 | 0.00 | 40 | 1008.7 |
| 20260505011411 | 65 | 117 | 11.3 | 23.5 | 0.00 | 0.00 | 0.00 | 40 | 1008.7 |
| 20260505011210 | 65 | 116 | 10.4 | 21.7 | 0.00 | 0.00 | 0.00 | 40 | 1008.8 |
| 20260505010611 | 64 | 118 | 8.7 | 19.1 | 0.00 | 0.00 | 0.00 | 40 | 1008.9 |
| 20260505010411 | 64 | 119 | 7.8 | 19.1 | 0.00 | 0.00 | 0.00 | 40 | 1009.0 |
| 20260505010210 | 64 | 116 | 7.0 | 18.2 | 0.00 | 0.00 | 0.00 | 40 | 1009.0 |
| 20260505010011 | 64 | 112 | 7.0 | 18.2 | 0.00 | 0.00 | 0.00 | 40 | 1009.1 |
| 20260505005810 | 64 | 109 | 6.1 | 18.2 | 0.00 | 0.00 | 0.00 | 40 | 1009.1 |
| 20260505005611 | 64 | 104 | 5.2 | 13.9 | 0.00 | 0.00 | 0.00 | 40 | 1009.2 |
| 20260505005410 | 63 | 101 | 5.2 | 13.9 | 0.00 | 0.00 | 0.00 | 41 | 1009.2 |
| 20260505005211 | 63 | 100 | 4.3 | 11.3 | 0.00 | 0.00 | 0.00 | 41 | 1009.3 |
| 20260505005010 | 63 | 98 | 4.3 | 11.3 | 0.00 | 0.00 | 0.00 | 41 | 1009.3 |
| 20260505004811 | 63 | 93 | 4.3 | 10.4 | 0.00 | 0.00 | 0.00 | 41 | 1009.3 |
| 20260505004610 | 63 | 90 | 4.3 | 10.4 | 0.00 | 0.00 | 0.00 | 41 | 1009.4 |
| 20260505004411 | 63 | 85 | 4.3 | 10.4 | 0.00 | 0.00 | 0.00 | 41 | 1009.4 |
| 20260505004210 | 63 | 75 | 4.3 | 10.4 | 0.00 | 0.00 | 0.00 | 41 | 1009.4 |
| 20260505004011 | 63 | 72 | 5.2 | 10.4 | 0.00 | 0.00 | 0.00 | 41 | 1009.5 |
| 20260505003810 | 63 | 68 | 5.2 | 8.7 | 0.00 | 0.00 | 0.00 | 41 | 1009.5 |
| 20260505003611 | 63 | 70 | 5.2 | 10.4 | 0.00 | 0.00 | 0.00 | 41 | 1009.6 |
| 20260505003411 | 63 | 75 | 6.1 | 10.4 | 0.00 | 0.00 | 0.00 | 41 | 1009.6 |
| 20260505003210 | 63 | 86 | 6.1 | 10.4 | 0.00 | 0.00 | 0.00 | 40 | 1009.7 |
| 20260505003011 | 64 | 91 | 6.1 | 11.3 | 0.00 | 0.00 | 0.00 | 40 | 1009.7 |
| 20260505002611 | 64 | 98 | 6.1 | 11.3 | 0.00 | 0.00 | 0.00 | 40 | 1009.7 |
| 20260505002410 | 64 | 98 | 6.1 | 12.2 | 0.00 | 0.00 | 0.00 | 40 | 1009.7 |
| 20260505002211 | 64 | 96 | 6.1 | 12.2 | 0.00 | 0.00 | 0.00 | 40 | 1009.8 |
| 20260505002010 | 64 | 97 | 6.1 | 12.2 | 0.00 | 0.00 | 0.00 | 40 | 1009.8 |
| 20260505001812 | 64 | 98 | 6.1 | 12.2 | 0.00 | 0.00 | 0.00 | 40 | 1009.9 |
| 20260505001611 | 64 | 99 | 6.1 | 12.2 | 0.00 | 0.00 | 0.00 | 39 | 1009.8 |
| 20260505001411 | 64 | 101 | 7.0 | 11.3 | 0.00 | 0.00 | 0.00 | 39 | 1009.8 |
| 20260505001211 | 64 | 102 | 7.0 | 11.3 | 0.00 | 0.00 | 0.00 | 39 | 1009.9 |
| 20260505001011 | 64 | 102 | 7.0 | 11.3 | 0.00 | 0.00 | 0.00 | 39 | 1009.9 |
| 20260505000810 | 64 | 103 | 7.0 | 13.0 | 0.00 | 0.00 | 0.00 | 39 | 1009.9 |
| 20260505000611 | 64 | 104 | 7.0 | 13.0 | 0.00 | 0.00 | 0.00 | 39 | 1010.0 |
| 20260505000413 | 64 | 106 | 7.0 | 13.0 | 0.00 | 0.00 | 0.00 | 38 | 1010.0 |
| 20260505000211 | 64 | 107 | 7.0 | 13.0 | 0.00 | 0.00 | 0.00 | 38 | 1010.0 |
| 20260505000011 | 64 | 108 | 7.0 | 13.0 | 0.00 | 0.00 | 0.00 | 38 | 1010.0 |
| 20260504235810 | 64 | 110 | 7.8 | 13.0 | 0.00 | 0.00 | 0.00 | 38 | 1010.1 |
| 20260504235611 | 64 | 111 | 7.8 | 13.0 | 0.00 | 0.00 | 0.00 | 38 | 1010.0 |
| 20260504235411 | 64 | 110 | 7.8 | 13.0 | 0.00 | 0.00 | 0.00 | 38 | 1010.0 |
| 20260504235210 | 65 | 110 | 7.8 | 13.0 | 0.00 | 0.00 | 0.00 | 38 | 1010.1 |
| 20260504235011 | 65 | 109 | 7.8 | 13.0 | 0.00 | 0.00 | 0.00 | 38 | 1010.1 |
| 20260504234810 | 65 | 108 | 7.8 | 13.0 | 0.00 | 0.00 | 0.00 | 38 | 1010.1 |
| 20260504234610 | 65 | 108 | 7.8 | 13.0 | 0.00 | 0.00 | 0.00 | 38 | 1010.1 |
| 20260504234411 | 65 | 109 | 8.7 | 13.9 | 0.00 | 0.00 | 0.00 | 38 | 1010.1 |
| 20260504234210 | 65 | 111 | 8.7 | 13.9 | 0.00 | 0.00 | 0.00 | 38 | 1010.1 |
| 20260504234011 | 65 | 111 | 8.7 | 13.9 | 0.00 | 0.00 | 0.00 | 38 | 1010.2 |
| 20260504233610 | 65 | 112 | 8.7 | 13.9 | 0.00 | 0.00 | 0.00 | 38 | 1010.1 |
| 20260504233410 | 65 | 111 | 8.7 | 13.9 | 0.00 | 0.00 | 0.00 | 38 | 1010.2 |
| 20260504233210 | 65 | 111 | 8.7 | 13.9 | 0.00 | 0.00 | 0.00 | 38 | 1010.1 |
| 20260504233010 | 65 | 112 | 8.7 | 13.9 | 0.00 | 0.00 | 0.00 | 38 | 1010.2 |
| 20260504232811 | 65 | 113 | 7.8 | 13.9 | 0.00 | 0.00 | 0.00 | 38 | 1010.1 |
| 20260504232610 | 65 | 114 | 7.8 | 13.9 | 0.00 | 0.00 | 0.00 | 38 | 1010.2 |
| 20260504232411 | 65 | 114 | 7.8 | 13.9 | 0.00 | 0.00 | 0.00 | 38 | 1010.2 |
| 20260504232210 | 65 | 113 | 7.8 | 12.2 | 0.00 | 0.00 | 0.00 | 38 | 1010.2 |
| 20260504232011 | 65 | 113 | 7.8 | 12.2 | 0.00 | 0.00 | 0.00 | 38 | 1010.2 |
| 20260504231810 | 66 | 111 | 7.8 | 12.2 | 0.00 | 0.00 | 0.00 | 38 | 1010.2 |
| 20260504231611 | 66 | 112 | 7.8 | 13.0 | 0.00 | 0.00 | 0.00 | 37 | 1010.2 |
| 20260504231410 | 66 | 113 | 8.7 | 13.0 | 0.00 | 0.00 | 0.00 | 37 | 1010.3 |
| 20260504231211 | 66 | 114 | 8.7 | 13.0 | 0.00 | 0.00 | 0.00 | 37 | 1010.3 |
| 20260504231010 | 66 | 115 | 8.7 | 13.0 | 0.00 | 0.00 | 0.00 | 37 | 1010.3 |
| 20260504230610 | 66 | 116 | 8.7 | 13.0 | 0.00 | 0.00 | 0.00 | 37 | 1010.3 |
| 20260504230411 | 66 | 115 | 8.7 | 13.9 | 0.00 | 0.00 | 0.00 | 37 | 1010.4 |
| 20260504230210 | 66 | 115 | 9.6 | 13.9 | 0.00 | 0.00 | 0.00 | 37 | 1010.3 |
| 20260504230011 | 67 | 115 | 9.6 | 13.9 | 0.00 | 0.00 | 0.00 | 37 | 1010.4 |
| 20260504225810 | 67 | 114 | 9.6 | 13.9 | 0.00 | 0.00 | 0.00 | 37 | 1010.4 |
| 20260504225611 | 67 | 115 | 9.6 | 13.9 | 0.00 | 0.00 | 0.00 | 37 | 1010.4 |
| 20260504225410 | 67 | 117 | 9.6 | 14.8 | 0.00 | 0.00 | 0.00 | 37 | 1010.5 |
| 20260504225211 | 67 | 118 | 9.6 | 14.8 | 0.00 | 0.00 | 0.00 | 37 | 1010.5 |
| 20260504225010 | 67 | 119 | 9.6 | 14.8 | 0.00 | 0.00 | 0.00 | 37 | 1010.6 |
| 20260504224811 | 67 | 119 | 9.6 | 15.6 | 0.00 | 0.00 | 0.00 | 37 | 1010.5 |
| 20260504224610 | 67 | 119 | 9.6 | 15.6 | 0.00 | 0.00 | 0.00 | 37 | 1010.6 |
| 20260504224411 | 67 | 118 | 9.6 | 17.4 | 0.00 | 0.00 | 0.00 | 36 | 1010.5 |
| 20260504224210 | 67 | 118 | 9.6 | 17.4 | 0.00 | 0.00 | 0.00 | 36 | 1010.6 |
| 20260504224011 | 67 | 118 | 8.7 | 17.4 | 0.00 | 0.00 | 0.00 | 37 | 1010.6 |
| 20260504223811 | 67 | 119 | 8.7 | 17.4 | 0.00 | 0.00 | 0.00 | 36 | 1010.5 |
| 20260504223610 | 67 | 119 | 7.8 | 17.4 | 0.00 | 0.00 | 0.00 | 36 | 1010.6 |
| 20260504223410 | 67 | 118 | 7.8 | 17.4 | 0.00 | 0.00 | 0.00 | 36 | 1010.6 |
| 20260504223210 | 67 | 118 | 7.8 | 17.4 | 0.00 | 0.00 | 0.00 | 36 | 1010.6 |
| 20260504223010 | 67 | 117 | 7.0 | 17.4 | 0.00 | 0.00 | 0.00 | 36 | 1010.7 |
| 20260504222811 | 67 | 115 | 7.0 | 15.6 | 0.00 | 0.00 | 0.00 | 36 | 1010.7 |
| 20260504222610 | 67 | 115 | 7.0 | 15.6 | 0.00 | 0.00 | 0.00 | 36 | 1010.7 |
| 20260504222411 | 67 | 115 | 7.0 | 15.6 | 0.00 | 0.00 | 0.00 | 36 | 1010.7 |
| 20260504222210 | 67 | 114 | 7.0 | 12.2 | 0.00 | 0.00 | 0.00 | 36 | 1010.7 |
| 20260504222011 | 67 | 115 | 7.0 | 12.2 | 0.00 | 0.00 | 0.00 | 36 | 1010.8 |
| 20260504221810 | 67 | 115 | 7.0 | 12.2 | 0.00 | 0.00 | 0.00 | 36 | 1010.8 |
| 20260504221611 | 67 | 116 | 7.0 | 12.2 | 0.00 | 0.00 | 0.00 | 37 | 1010.8 |
| 20260504221410 | 67 | 117 | 7.8 | 12.2 | 0.00 | 0.00 | 0.00 | 36 | 1010.8 |
| 20260504221211 | 67 | 117 | 7.8 | 12.2 | 0.00 | 0.00 | 0.00 | 36 | 1010.8 |
| 20260504221010 | 67 | 118 | 7.8 | 12.2 | 0.00 | 0.00 | 0.00 | 36 | 1010.8 |
| 20260504220811 | 67 | 118 | 7.8 | 12.2 | 0.00 | 0.00 | 0.00 | 36 | 1010.8 |
| 20260504220610 | 67 | 117 | 7.8 | 13.0 | 0.00 | 0.00 | 0.00 | 36 | 1010.9 |
| 20260504220211 | 67 | 118 | 7.8 | 13.9 | 0.00 | 0.00 | 0.00 | 36 | 1010.9 |
| 20260504220012 | 68 | 118 | 7.8 | 13.9 | 0.00 | 0.00 | 0.00 | 36 | 1010.9 |
| 20260504215810 | 68 | 118 | 7.8 | 13.9 | 0.00 | 0.00 | 0.00 | 36 | 1011.0 |
| 20260504215611 | 68 | 117 | 8.7 | 13.9 | 0.00 | 0.00 | 0.00 | 36 | 1010.9 |
| 20260504215411 | 68 | 117 | 8.7 | 13.9 | 0.00 | 0.00 | 0.00 | 36 | 1010.8 |
| 20260504215210 | 68 | 116 | 8.7 | 13.0 | 0.00 | 0.00 | 0.00 | 36 | 1010.9 |
| 20260504215011 | 68 | 116 | 8.7 | 13.9 | 0.00 | 0.00 | 0.00 | 36 | 1010.9 |
| 20260504214610 | 67 | 117 | 8.7 | 14.8 | 0.00 | 0.00 | 0.00 | 36 | 1010.8 |
| 20260504214410 | 67 | 117 | 8.7 | 14.8 | 0.00 | 0.00 | 0.00 | 36 | 1010.8 |
| 20260504214210 | 67 | 117 | 7.8 | 14.8 | 0.00 | 0.00 | 0.00 | 36 | 1010.9 |
| 20260504214010 | 67 | 118 | 7.8 | 14.8 | 0.00 | 0.00 | 0.00 | 36 | 1011.0 |
| 20260504213811 | 67 | 120 | 7.8 | 13.9 | 0.00 | 0.00 | 0.00 | 36 | 1010.9 |
| 20260504213610 | 67 | 118 | 7.8 | 13.9 | 0.00 | 0.00 | 0.00 | 36 | 1010.9 |
| 20260504213410 | 67 | 117 | 7.8 | 13.9 | 0.00 | 0.00 | 0.00 | 36 | 1010.9 |
| 20260504213210 | 67 | 117 | 7.8 | 13.9 | 0.00 | 0.00 | 0.00 | 36 | 1011.0 |
| 20260504213011 | 67 | 116 | 7.8 | 13.9 | 0.00 | 0.00 | 0.00 | 37 | 1011.0 |
| 20260504212811 | 67 | 115 | 7.8 | 13.0 | 0.00 | 0.00 | 0.00 | 36 | 1011.0 |
| 20260504212410 | 67 | 115 | 7.8 | 13.0 | 0.00 | 0.00 | 0.00 | 36 | 1011.0 |
| 20260504212210 | 67 | 115 | 7.8 | 13.0 | 0.00 | 0.00 | 0.00 | 36 | 1011.0 |
| 20260504211810 | 67 | 117 | 7.8 | 13.0 | 0.00 | 0.00 | 0.00 | 36 | 1011.0 |
| 20260504211410 | 67 | 118 | 7.0 | 14.8 | 0.00 | 0.00 | 0.00 | 36 | 1011.0 |
| 20260504211010 | 67 | 117 | 7.0 | 14.8 | 0.00 | 0.00 | 0.00 | 35 | 1011.1 |
| 20260504210811 | 67 | 119 | 7.0 | 14.8 | 0.00 | 0.00 | 0.00 | 35 | 1011.1 |
| 20260504210610 | 67 | 119 | 7.0 | 13.0 | 0.00 | 0.00 | 0.00 | 35 | 1011.1 |
| 20260504210411 | 67 | 119 | 7.0 | 12.2 | 0.00 | 0.00 | 0.00 | 35 | 1011.2 |
| 20260504210210 | 67 | 118 | 7.8 | 12.2 | 0.00 | 0.00 | 0.00 | 35 | 1011.1 |
| 20260504210011 | 67 | 120 | 7.0 | 12.2 | 0.00 | 0.00 | 0.00 | 35 | 1011.1 |
| 20260504205810 | 67 | 119 | 7.0 | 12.2 | 0.00 | 0.00 | 0.00 | 35 | 1011.1 |
| 20260504205611 | 67 | 118 | 7.0 | 12.2 | 0.00 | 0.00 | 0.00 | 35 | 1011.1 |
| 20260504205410 | 67 | 117 | 7.8 | 12.2 | 0.00 | 0.00 | 0.00 | 35 | 1011.1 |
| 20260504205211 | 67 | 116 | 7.8 | 12.2 | 0.00 | 0.00 | 0.00 | 35 | 1011.2 |
| 20260504205010 | 67 | 116 | 7.8 | 13.0 | 0.00 | 0.00 | 0.00 | 35 | 1011.2 |
| 20260504204810 | 67 | 116 | 7.8 | 13.0 | 0.00 | 0.00 | 0.00 | 35 | 1011.2 |
| 20260504204610 | 67 | 117 | 7.0 | 13.0 | 0.00 | 0.00 | 0.00 | 35 | 1011.2 |
| 20260504204411 | 67 | 116 | 7.0 | 13.0 | 0.00 | 0.00 | 0.00 | 35 | 1011.2 |
| 20260504204010 | 67 | 116 | 6.1 | 12.2 | 0.00 | 0.00 | 0.00 | 35 | 1011.1 |
| 20260504203810 | 67 | 116 | 6.1 | 12.2 | 0.00 | 0.00 | 0.00 | 35 | 1011.2 |
| 20260504203410 | 67 | 117 | 6.1 | 10.4 | 0.00 | 0.00 | 0.00 | 35 | 1011.2 |
| 20260504203011 | 67 | 119 | 6.1 | 9.6 | 0.00 | 0.00 | 0.00 | 35 | 1011.1 |
| 20260504202810 | 67 | 119 | 6.1 | 9.6 | 0.00 | 0.00 | 0.00 | 35 | 1011.1 |
| 20260504202611 | 67 | 119 | 6.1 | 9.6 | 0.00 | 0.00 | 0.00 | 35 | 1011.1 |
| 20260504202410 | 67 | 118 | 6.1 | 9.6 | 0.00 | 0.00 | 0.00 | 36 | 1011.1 |
| 20260504202210 | 67 | 118 | 6.1 | 9.6 | 0.00 | 0.00 | 0.00 | 36 | 1011.1 |
| 20260504201810 | 67 | 117 | 5.2 | 9.6 | 0.00 | 0.00 | 0.00 | 36 | 1011.1 |
| 20260504201611 | 67 | 116 | 5.2 | 9.6 | 0.00 | 0.00 | 0.00 | 36 | 1011.1 |
| 20260504201405 | 67 | 119 | 5.2 | 9.6 | 0.00 | 0.00 | 0.00 | 36 | 1011.1 |
| 20260504201226 | 67 | 119 | 5.2 | 9.6 | 0.00 | 0.00 | 0.00 | 36 | 1011.2 |
| 20260504201021 | 67 | 119 | 5.2 | 8.7 | 0.00 | 0.00 | 0.00 | 36 | 1011.2 |
| 20260504200410 | 67 | 117 | 4.3 | 8.7 | 0.00 | 0.00 | 0.00 | 36 | 1011.3 |
| 20260504200210 | 67 | 116 | 4.3 | 8.7 | 0.00 | 0.00 | 0.00 | 36 | 1011.2 |
| 20260504200010 | 67 | 116 | 4.3 | 9.6 | 0.00 | 0.00 | 0.00 | 36 | 1011.2 |
| 20260504195810 | 67 | 115 | 4.3 | 9.6 | 0.00 | 0.00 | 0.00 | 36 | 1011.2 |
| 20260504195611 | 67 | 114 | 4.3 | 9.6 | 0.00 | 0.00 | 0.00 | 36 | 1011.2 |
| 20260504195410 | 67 | 115 | 4.3 | 9.6 | 0.00 | 0.00 | 0.00 | 36 | 1011.2 |
| 20260504195210 | 67 | 113 | 4.3 | 9.6 | 0.00 | 0.00 | 0.00 | 36 | 1011.2 |
| 20260504195010 | 67 | 112 | 4.3 | 7.8 | 0.00 | 0.00 | 0.00 | 37 | 1011.2 |
| 20260504194810 | 67 | 110 | 4.3 | 7.8 | 0.00 | 0.00 | 0.00 | 37 | 1011.2 |
| 20260504194610 | 66 | 109 | 4.3 | 8.7 | 0.00 | 0.00 | 0.00 | 38 | 1011.2 |
| 20260504194410 | 66 | 109 | 4.3 | 8.7 | 0.00 | 0.00 | 0.00 | 38 | 1011.2 |
| 20260504194010 | 66 | 108 | 3.5 | 8.7 | 0.00 | 0.00 | 0.00 | 38 | 1011.2 |
| 20260504193810 | 66 | 106 | 3.5 | 8.7 | 0.00 | 0.00 | 0.00 | 38 | 1011.2 |
| 20260504193611 | 66 | 108 | 3.5 | 6.1 | 0.00 | 0.00 | 0.00 | 38 | 1011.2 |
| 20260504193410 | 66 | 108 | 3.5 | 6.1 | 0.00 | 0.00 | 0.00 | 38 | 1011.2 |
| 20260504193211 | 66 | 108 | 3.5 | 7.0 | 0.00 | 0.00 | 0.00 | 39 | 1011.2 |
| 20260504193010 | 66 | 109 | 3.5 | 7.8 | 0.00 | 0.00 | 0.00 | 39 | 1011.2 |
| 20260504192811 | 66 | 112 | 3.5 | 7.8 | 0.00 | 0.00 | 0.00 | 39 | 1011.3 |
| 20260504192610 | 65 | 110 | 2.6 | 7.8 | 0.00 | 0.00 | 0.00 | 40 | 1011.2 |
| 20260504192411 | 65 | 108 | 2.6 | 7.8 | 0.00 | 0.00 | 0.00 | 40 | 1011.2 |
| 20260504192210 | 65 | 109 | 2.6 | 7.8 | 0.00 | 0.00 | 0.00 | 40 | 1011.3 |
| 20260504191810 | 64 | 103 | 2.6 | 5.2 | 0.00 | 0.00 | 0.00 | 40 | 1011.3 |
| 20260504191611 | 64 | 102 | 2.6 | 5.2 | 0.00 | 0.00 | 0.00 | 41 | 1011.3 |
| 20260504191210 | 64 | 99 | 1.7 | 5.2 | 0.00 | 0.00 | 0.00 | 41 | 1011.3 |
| 20260504191010 | 64 | 99 | 1.7 | 3.5 | 0.00 | 0.00 | 0.00 | 41 | 1011.3 |
| 20260504190810 | 64 | 101 | 1.7 | 3.5 | 0.00 | 0.00 | 0.00 | 42 | 1011.4 |
| 20260504190610 | 64 | 102 | 1.7 | 3.5 | 0.00 | 0.00 | 0.00 | 41 | 1011.4 |
| 20260504190410 | 64 | 102 | 1.7 | 3.5 | 0.00 | 0.00 | 0.00 | 42 | 1011.4 |
| 20260504185810 | 65 | 96 | 1.7 | 3.5 | 0.00 | 0.00 | 0.00 | 40 | 1011.3 |
| 20260504185610 | 65 | 92 | 1.7 | 3.5 | 0.00 | 0.00 | 0.00 | 40 | 1011.3 |
| 20260504185410 | 65 | 90 | 1.7 | 3.5 | 0.00 | 0.00 | 0.00 | 40 | 1011.3 |
| 20260504184809 | 65 | 89 | 1.7 | 3.5 | 0.00 | 0.00 | 0.00 | 40 | 1011.3 |
| 20260504184410 | 66 | 90 | 1.7 | 3.5 | 0.00 | 0.00 | 0.00 | 39 | 1011.3 |
| 20260504184210 | 66 | 91 | 1.7 | 3.5 | 0.00 | 0.00 | 0.00 | 39 | 1011.2 |
| 20260504184010 | 67 | 94 | 1.7 | 3.5 | 0.00 | 0.00 | 0.00 | 38 | 1011.2 |
| 20260504183810 | 67 | 96 | 1.7 | 3.5 | 0.00 | 0.00 | 0.00 | 38 | 1011.2 |
| 20260504183610 | 67 | 103 | 1.7 | 4.3 | 0.00 | 0.00 | 0.00 | 37 | 1011.3 |
| 20260504183010 | 68 | 112 | 2.6 | 5.2 | 0.00 | 0.00 | 0.00 | 37 | 1011.2 |
| 20260504182810 | 68 | 114 | 2.6 | 6.1 | 0.00 | 0.00 | 0.00 | 37 | 1011.2 |
| 20260504182611 | 68 | 115 | 2.6 | 6.1 | 0.00 | 0.00 | 0.00 | 37 | 1011.2 |
| 20260504182410 | 69 | 116 | 2.6 | 6.1 | 0.00 | 0.00 | 0.00 | 37 | 1011.3 |
| 20260504182210 | 69 | 116 | 2.6 | 6.1 | 0.00 | 0.00 | 0.00 | 36 | 1011.2 |
| 20260504181810 | 69 | 117 | 2.6 | 6.1 | 0.00 | 0.00 | 0.00 | 37 | 1011.2 |
| 20260504181410 | 69 | 117 | 1.7 | 5.2 | 0.00 | 0.00 | 0.00 | 37 | 1011.2 |
| 20260504181210 | 69 | 123 | 1.7 | 5.2 | 0.00 | 0.00 | 0.00 | 36 | 1011.2 |
| 20260504180810 | 70 | 132 | 1.7 | 5.2 | 0.00 | 0.00 | 0.00 | 37 | 1011.1 |
| 20260504180610 | 70 | 136 | 2.6 | 4.3 | 0.00 | 0.00 | 0.00 | 36 | 1011.2 |
| 20260504180410 | 70 | 140 | 2.6 | 4.3 | 0.00 | 0.00 | 0.00 | 36 | 1011.2 |
| 20260504180209 | 70 | 139 | 2.6 | 7.8 | 0.00 | 0.00 | 0.00 | 36 | 1011.1 |
| 20260504175810 | 71 | 143 | 3.5 | 7.8 | 0.00 | 0.00 | 0.00 | 36 | 1011.1 |
| 20260504175410 | 71 | 145 | 3.5 | 7.8 | 0.00 | 0.00 | 0.00 | 35 | 1011.1 |
| 20260504175210 | 71 | 148 | 3.5 | 7.8 | 0.00 | 0.00 | 0.00 | 35 | 1011.1 |
| 20260504175010 | 71 | 145 | 3.5 | 7.8 | 0.00 | 0.00 | 0.00 | 35 | 1011.1 |
| 20260504174810 | 71 | 147 | 4.3 | 7.8 | 0.00 | 0.00 | 0.00 | 35 | 1011.1 |
| 20260504174409 | 72 | 148 | 4.3 | 8.7 | 0.00 | 0.00 | 0.00 | 34 | 1011.0 |
| 20260504174210 | 72 | 150 | 4.3 | 9.6 | 0.00 | 0.00 | 0.00 | 33 | 1011.1 |
| 20260504174011 | 72 | 150 | 5.2 | 9.6 | 0.00 | 0.00 | 0.00 | 33 | 1011.0 |
| 20260504173810 | 72 | 148 | 5.2 | 11.3 | 0.00 | 0.00 | 0.00 | 33 | 1011.0 |
| 20260504173609 | 72 | 149 | 5.2 | 11.3 | 0.00 | 0.00 | 0.00 | 32 | 1011.0 |
| 20260504173410 | 73 | 147 | 6.1 | 11.3 | 0.00 | 0.00 | 0.00 | 32 | 1011.0 |
| 20260504173210 | 73 | 145 | 6.1 | 14.8 | 0.00 | 0.00 | 0.00 | 32 | 1011.0 |
| 20260504173010 | 73 | 145 | 6.1 | 14.8 | 0.00 | 0.00 | 0.00 | 32 | 1011.0 |
| 20260504172810 | 73 | 146 | 6.1 | 14.8 | 0.00 | 0.00 | 0.00 | 31 | 1011.0 |
| 20260504172611 | 73 | 142 | 7.0 | 14.8 | 0.00 | 0.00 | 0.00 | 31 | 1011.0 |
| 20260504172410 | 73 | 144 | 7.0 | 14.8 | 0.00 | 0.00 | 0.00 | 31 | 1011.0 |
| 20260504172210 | 73 | 144 | 7.0 | 15.6 | 0.00 | 0.00 | 0.00 | 31 | 1011.0 |
| 20260504171809 | 74 | 140 | 6.1 | 15.6 | 0.00 | 0.00 | 0.00 | 31 | 1011.0 |
| 20260504171610 | 74 | 142 | 6.1 | 15.6 | 0.00 | 0.00 | 0.00 | 31 | 1010.9 |
| 20260504171409 | 74 | 138 | 6.1 | 15.6 | 0.00 | 0.00 | 0.00 | 31 | 1010.9 |
| 20260504171010 | 74 | 144 | 6.1 | 15.6 | 0.00 | 0.00 | 0.00 | 31 | 1011.0 |
| 20260504170810 | 74 | 143 | 6.1 | 15.6 | 0.00 | 0.00 | 0.00 | 31 | 1010.9 |
| 20260504170610 | 74 | 143 | 6.1 | 15.6 | 0.00 | 0.00 | 0.00 | 31 | 1011.0 |
| 20260504170410 | 75 | 143 | 7.0 | 15.6 | 0.00 | 0.00 | 0.00 | 31 | 1011.0 |
| 20260504170210 | 75 | 142 | 7.0 | 13.9 | 0.00 | 0.00 | 0.00 | 31 | 1010.9 |
| 20260504160410 | 76 | 129 | 8.7 | 16.5 | 0.00 | 0.00 | 0.00 | 30 | 1011.0 |
| 20260504160210 | 76 | 132 | 8.7 | 16.5 | 0.00 | 0.00 | 0.00 | 30 | 1011.0 |
| 20260504151010 | 78 | 126 | 7.8 | 17.4 | 0.00 | 0.00 | 0.00 | 30 | 1011.3 |
| 20260504150810 | 78 | 126 | 7.8 | 17.4 | 0.00 | 0.00 | 0.00 | 29 | 1011.3 |
| 20260504150409 | 78 | 130 | 7.8 | 17.4 | 0.00 | 0.00 | 0.00 | 29 | 1011.4 |
| 20260504150210 | 78 | 130 | 7.8 | 17.4 | 0.00 | 0.00 | 0.00 | 30 | 1011.4 |
| 20260504141210 | 78 | 134 | 8.7 | 16.5 | 0.00 | 0.00 | 0.00 | 31 | 1011.9 |
| 20260504141009 | 78 | 135 | 8.7 | 16.5 | 0.00 | 0.00 | 0.00 | 32 | 1012.0 |
| 20260504140810 | 78 | 131 | 8.7 | 16.5 | 0.00 | 0.00 | 0.00 | 32 | 1012.0 |
| 20260504140609 | 78 | 130 | 8.7 | 16.5 | 0.00 | 0.00 | 0.00 | 31 | 1012.0 |
| 20260504140410 | 78 | 131 | 8.7 | 16.5 | 0.00 | 0.00 | 0.00 | 31 | 1012.0 |
| 20260504140210 | 78 | 129 | 9.6 | 16.5 | 0.00 | 0.00 | 0.00 | 32 | 1012.0 |
| 20260504130810 | 77 | 128 | 9.6 | 17.4 | 0.00 | 0.00 | 0.00 | 34 | 1012.5 |
| 20260504130609 | 77 | 118 | 9.6 | 17.4 | 0.00 | 0.00 | 0.00 | 34 | 1012.5 |
| 20260504130210 | 77 | 130 | 9.6 | 16.5 | 0.00 | 0.00 | 0.00 | 33 | 1012.5 |
| 20260504110610 | 74 | 132 | 9.6 | 20.0 | 0.00 | 0.00 | 0.00 | 40 | 1013.7 |
| 20260504110409 | 74 | 131 | 9.6 | 20.0 | 0.00 | 0.00 | 0.00 | 40 | 1013.8 |
| 20260504110210 | 74 | 129 | 9.6 | 20.0 | 0.00 | 0.00 | 0.00 | 40 | 1013.7 |
| 20260504100610 | 72 | 132 | 9.6 | 16.5 | 0.00 | 0.00 | 0.00 | 42 | 1014.5 |
| 20260504100409 | 72 | 137 | 9.6 | 16.5 | 0.00 | 0.00 | 0.00 | 42 | 1014.6 |
| 20260504100209 | 72 | 133 | 9.6 | 16.5 | 0.00 | 0.00 | 0.00 | 41 | 1014.6 |